Location: S�tio Afonso Gruber
(26.1760°S, 49.5250°W)
Time: 00:45:38
(UTC+00:00)

Intelsat 5-3 Rocket - Pass Details

Date: 04 October 2020
Orbit: 281 x 6111 km, 23.6° (Epoch: 22 October)

Event Time Altitude Azimuth Distance (km) Brightness Sun altitude
Exits shadow 04:49:00 80° 341° (NNW) 4,654 6.5 -50.6°
Maximum altitude 04:49:32 80° 351° (N) 4,702 6.5 -50.5°
Drops below altitude 10° 05:31:45 10° 72° (ENE) 9,534 8.8 -43.4°
Sets 05:39:27 0° 72° (ENE) 10,244 9.1 -41.9°
